IBE09R LEMD-GOBD

Flight info

Callsign IBE09R
Flight time N/A
Altitude 31000
Route VTB N10 HIJ/N0452F330 N10 SVL DCT CLANA DCT KORNO UN857 IBALU UR724 ADM UR975 DIDAN/N0454F340 UR975 SAKLI SAKLI1A
Aircraft A321/M-SDE3FGHIRWY/LB1

Departure

Time N/A
Airport Adolfo Suárez Madrid–Barajas Airport (LEMD)

Arrival

Time 2026-04-24 19:21
Airport Blaise Diagne International Airport (GOBD)
Time Latitude Longitude Altitude Speed Heading
2026-04-24 15:28 39.59908 -3.70313 24931 ft 433 kts 224°
2026-04-24 15:29 39.55680 -3.75844 25574 ft 430 kts 224°
2026-04-24 15:30 39.49409 -3.84016 26480 ft 426 kts 223°
2026-04-24 15:31 39.41782 -3.93948 27596 ft 422 kts 223°
2026-04-24 15:32 39.32883 -4.05506 28783 ft 416 kts 222°
2026-04-24 15:33 39.24752 -4.16023 29815 ft 411 kts 222°
2026-04-24 15:33 39.18703 -4.23808 30475 ft 408 kts 221°
2026-04-24 15:34 39.15364 -4.28110 30832 ft 407 kts 221°
2026-04-24 15:35 39.09352 -4.35832 31100 ft 406 kts 221°
2026-04-24 15:35 39.05343 -4.40960 31102 ft 406 kts 221°
2026-04-24 15:36 39.01334 -4.46084 31102 ft 406 kts 221°
2026-04-24 15:36 38.95325 -4.53761 31100 ft 406 kts 221°
2026-04-24 15:37 38.91308 -4.58861 31097 ft 405 kts 221°
2026-04-24 15:37 38.87322 -4.63917 31093 ft 405 kts 221°
2026-04-24 15:38 38.83313 -4.69018 31086 ft 405 kts 221°
2026-04-24 15:38 38.79302 -4.74102 31085 ft 405 kts 221°
2026-04-24 15:39 38.75292 -4.79184 31081 ft 405 kts 221°
2026-04-24 15:39 38.71280 -4.84260 31080 ft 405 kts 220°
2026-04-24 15:40 38.67262 -4.89329 31066 ft 405 kts 220°
2026-04-24 15:40 38.63239 -4.94388 31066 ft 405 kts 220°
2026-04-24 15:41 38.59214 -4.99440 31068 ft 405 kts 220°
2026-04-24 15:41 38.55211 -5.04457 31069 ft 405 kts 220°
2026-04-24 15:42 38.51082 -5.09335 31062 ft 402 kts 212°
2026-04-24 15:42 38.46254 -5.12807 31066 ft 398 kts 202°
2026-04-24 15:43 38.41274 -5.15891 31052 ft 398 kts 203°
2026-04-24 15:43 38.36300 -5.18989 31060 ft 398 kts 202°
2026-04-24 15:44 38.31321 -5.22084 31060 ft 398 kts 202°
2026-04-24 15:44 38.26334 -5.25171 31065 ft 398 kts 202°
2026-04-24 15:45 38.21344 -5.28254 31060 ft 399 kts 202°
2026-04-24 15:45 38.16386 -5.31320 31059 ft 398 kts 202°
2026-04-24 15:46 38.11400 -5.34392 31068 ft 399 kts 202°
2026-04-24 15:46 38.06393 -5.37473 31073 ft 402 kts 202°
2026-04-24 15:47 38.01298 -5.40594 31087 ft 411 kts 202°
2026-04-24 15:47 37.96085 -5.43785 31086 ft 421 kts 202°
2026-04-24 15:48 37.90760 -5.47042 31085 ft 427 kts 202°
2026-04-24 15:48 37.85405 -5.50323 31085 ft 428 kts 202°
2026-04-24 15:49 37.80075 -5.53587 31084 ft 428 kts 202°
2026-04-24 15:49 37.74703 -5.56868 31081 ft 428 kts 202°
2026-04-24 15:50 37.69330 -5.60127 31069 ft 427 kts 202°
2026-04-24 15:50 37.63974 -5.63376 31077 ft 427 kts 202°
2026-04-24 15:51 37.58611 -5.66633 31067 ft 427 kts 202°
2026-04-24 15:51 37.53288 -5.69865 31049 ft 427 kts 202°
2026-04-24 15:52 37.47935 -5.73101 31043 ft 426 kts 202°
2026-04-24 15:52 37.42660 -5.76521 31039 ft 430 kts 210°
2026-04-24 15:53 37.37992 -5.81312 31040 ft 434 kts 216°
2026-04-24 15:53 37.33381 -5.86231 31041 ft 434 kts 216°
2026-04-24 15:54 37.28755 -5.91136 31047 ft 435 kts 216°
2026-04-24 15:54 37.24152 -5.96013 31066 ft 435 kts 216°
2026-04-24 15:55 37.19515 -6.00920 31057 ft 436 kts 216°
2026-04-24 15:55 37.14878 -6.05827 31067 ft 436 kts 217°
2026-04-24 15:56 37.10242 -6.10727 31066 ft 436 kts 216°
2026-04-24 15:56 37.05591 -6.15625 31058 ft 436 kts 216°
2026-04-24 15:57 37.00943 -6.20513 31060 ft 436 kts 217°
2026-04-24 15:57 36.96323 -6.25364 31051 ft 436 kts 216°
2026-04-24 15:58 36.91671 -6.30247 31061 ft 437 kts 217°
2026-04-24 15:58 36.87010 -6.35138 31072 ft 437 kts 216°
2026-04-24 15:59 36.82343 -6.40015 31063 ft 437 kts 216°
2026-04-24 15:59 36.77672 -6.44882 31072 ft 438 kts 216°
2026-04-24 16:00 36.72999 -6.49753 31062 ft 438 kts 217°
2026-04-24 16:00 36.68318 -6.54631 31053 ft 438 kts 217°
2026-04-24 16:01 36.63631 -6.59504 31062 ft 439 kts 217°
2026-04-24 16:01 36.58970 -6.64341 31054 ft 439 kts 217°
2026-04-24 16:02 36.54269 -6.69191 31054 ft 439 kts 217°
2026-04-24 16:02 36.49572 -6.74047 31066 ft 439 kts 217°
2026-04-24 16:03 36.44865 -6.78909 31062 ft 439 kts 217°
2026-04-24 16:03 36.40161 -6.83758 31067 ft 440 kts 217°
2026-04-24 16:04 36.35448 -6.88605 31073 ft 440 kts 217°
2026-04-24 16:04 36.30730 -6.93451 31064 ft 440 kts 217°
2026-04-24 16:05 36.23634 -7.00706 31075 ft 441 kts 218°
2026-04-24 16:06 36.16563 -7.07929 31074 ft 441 kts 218°
2026-04-24 16:07 36.09448 -7.15182 31074 ft 442 kts 218°
2026-04-24 16:07 36.02324 -7.22437 31067 ft 443 kts 218°
2026-04-24 16:08 35.95173 -7.29689 31077 ft 443 kts 219°
2026-04-24 16:09 35.88031 -7.36923 31086 ft 442 kts 220°
2026-04-24 16:09 35.83279 -7.41725 31087 ft 442 kts 220°
2026-04-24 16:11 35.71282 -7.53691 31071 ft 445 kts 220°
2026-04-24 16:11 35.66463 -7.58494 31062 ft 446 kts 220°
2026-04-24 16:12 35.59243 -7.65664 31076 ft 446 kts 220°
2026-04-24 16:13 35.51999 -7.72834 31065 ft 446 kts 220°
2026-04-24 16:14 35.42332 -7.82397 31069 ft 446 kts 220°
2026-04-24 16:14 35.35094 -7.89600 31062 ft 446 kts 221°
2026-04-24 16:15 35.27917 -7.96784 31067 ft 446 kts 221°
2026-04-24 16:16 35.20701 -8.03991 31072 ft 447 kts 223°
2026-04-24 16:17 35.13431 -8.11209 31330 ft 451 kts 223°
2026-04-24 16:17 35.08546 -8.16054 31586 ft 453 kts 224°
2026-04-24 16:18 35.03644 -8.20906 31873 ft 454 kts 224°
2026-04-24 16:18 34.98736 -8.25749 32166 ft 454 kts 224°
2026-04-24 16:18 34.96282 -8.28169 32312 ft 453 kts 225°
2026-04-24 16:19 34.91387 -8.33001 32610 ft 453 kts 225°
2026-04-24 16:19 34.88938 -8.35424 32762 ft 453 kts 225°
2026-04-24 16:20 34.84072 -8.40219 33058 ft 453 kts 225°
2026-04-24 16:20 34.76643 -8.47498 33091 ft 461 kts 225°
2026-04-24 16:21 34.69943 -8.54052 33082 ft 467 kts 225°
2026-04-24 16:22 34.64866 -8.59011 33082 ft 468 kts 225°
2026-04-24 16:22 34.57249 -8.66449 33083 ft 468 kts 226°
2026-04-24 16:23 34.52166 -8.71416 33090 ft 469 kts 226°
2026-04-24 16:24 34.44269 -8.78410 33092 ft 481 kts 213°
2026-04-24 16:24 34.41134 -8.79928 33090 ft 491 kts 202°
2026-04-24 16:24 34.37810 -8.80945 33090 ft 493 kts 200°
2026-04-24 16:25 34.31145 -8.82933 33086 ft 493 kts 200°
2026-04-24 16:25 34.24477 -8.84961 33086 ft 494 kts 201°
2026-04-24 16:26 34.14457 -8.88014 33082 ft 495 kts 200°
2026-04-24 16:27 34.04422 -8.91042 33080 ft 495 kts 201°
2026-04-24 16:27 33.97728 -8.93065 33082 ft 495 kts 201°
2026-04-24 16:28 33.91092 -8.95062 33091 ft 494 kts 201°
2026-04-24 16:28 33.81069 -8.98059 33092 ft 494 kts 201°
2026-04-24 16:29 33.74406 -9.00063 33089 ft 494 kts 201°
2026-04-24 16:30 33.61075 -9.04059 33091 ft 494 kts 201°
2026-04-24 16:30 33.54405 -9.06043 33091 ft 493 kts 201°
2026-04-24 16:31 33.47745 -9.08022 33086 ft 493 kts 201°
2026-04-24 16:31 33.41135 -9.09991 33080 ft 492 kts 201°
2026-04-24 16:32 33.34482 -9.11966 33076 ft 492 kts 201°
2026-04-24 16:32 33.27840 -9.13930 33076 ft 491 kts 201°
2026-04-24 16:33 33.21198 -9.15899 33075 ft 491 kts 201°
2026-04-24 16:33 33.14567 -9.17859 33078 ft 491 kts 201°
2026-04-24 16:34 33.07937 -9.19829 33084 ft 491 kts 201°
2026-04-24 16:34 33.01318 -9.21797 33088 ft 490 kts 201°
2026-04-24 16:35 32.94698 -9.23761 33084 ft 490 kts 201°
2026-04-24 16:35 32.88132 -9.25700 33081 ft 489 kts 201°
2026-04-24 16:36 32.81532 -9.27649 33079 ft 488 kts 201°
2026-04-24 16:36 32.74944 -9.29591 33077 ft 487 kts 201°
2026-04-24 16:37 32.68354 -9.31520 33075 ft 487 kts 201°
2026-04-24 16:37 32.61783 -9.33457 33075 ft 486 kts 201°
2026-04-24 16:38 32.55217 -9.35386 33075 ft 486 kts 201°
2026-04-24 16:38 32.48658 -9.37303 33072 ft 485 kts 201°
2026-04-24 16:39 32.42136 -9.39212 33066 ft 485 kts 201°
2026-04-24 16:39 32.35575 -9.41128 33068 ft 484 kts 201°
2026-04-24 16:40 32.29034 -9.43037 33068 ft 484 kts 201°
2026-04-24 16:40 32.22502 -9.44931 33067 ft 483 kts 201°
2026-04-24 16:41 32.15978 -9.46828 33062 ft 482 kts 201°
2026-04-24 16:41 32.09466 -9.48730 33058 ft 481 kts 201°
2026-04-24 16:42 32.02967 -9.50615 33055 ft 481 kts 201°
2026-04-24 16:42 31.96469 -9.52489 33056 ft 480 kts 200°
2026-04-24 16:43 31.89994 -9.54360 33059 ft 479 kts 201°
2026-04-24 16:43 31.83567 -9.56220 33055 ft 478 kts 201°
2026-04-24 16:44 31.77109 -9.58079 33048 ft 477 kts 200°
2026-04-24 16:44 31.70657 -9.59931 33039 ft 477 kts 200°
2026-04-24 16:45 31.64203 -9.61791 33036 ft 477 kts 200°
2026-04-24 16:45 31.57756 -9.63650 33033 ft 477 kts 200°
2026-04-24 16:46 31.51302 -9.65493 33043 ft 477 kts 200°
2026-04-24 16:46 31.44857 -9.67332 33040 ft 477 kts 200°
2026-04-24 16:47 31.38151 -9.67901 33036 ft 493 kts 180°
2026-04-24 16:47 31.31375 -9.66245 33036 ft 499 kts 172°
2026-04-24 16:48 31.24611 -9.64352 33029 ft 499 kts 172°
2026-04-24 16:48 31.17851 -9.62475 33019 ft 500 kts 172°
2026-04-24 16:49 31.11090 -9.60594 33021 ft 499 kts 172°
2026-04-24 16:49 31.04322 -9.58712 33022 ft 499 kts 172°
2026-04-24 16:50 30.97623 -9.56807 33017 ft 498 kts 171°
2026-04-24 16:50 30.90899 -9.54854 33004 ft 497 kts 171°
2026-04-24 16:51 30.84175 -9.52910 32990 ft 497 kts 171°
2026-04-24 16:51 30.77470 -9.50997 32976 ft 496 kts 171°
2026-04-24 16:52 30.70759 -9.49093 32966 ft 495 kts 171°
2026-04-24 16:52 30.64061 -9.47216 32949 ft 494 kts 171°
2026-04-24 16:53 30.57376 -9.45353 32938 ft 494 kts 172°
2026-04-24 16:53 30.50739 -9.43503 32928 ft 493 kts 172°
2026-04-24 16:54 30.44067 -9.41647 32922 ft 493 kts 172°
2026-04-24 16:54 30.37399 -9.39835 32914 ft 490 kts 175°
2026-04-24 16:55 30.30712 -9.39646 32913 ft 475 kts 194°
2026-04-24 16:55 30.24484 -9.41717 32913 ft 463 kts 207°
2026-04-24 16:56 30.18449 -9.44356 32912 ft 463 kts 206°
2026-04-24 16:56 30.12403 -9.46967 32916 ft 464 kts 206°
2026-04-24 16:57 30.06357 -9.49576 32912 ft 463 kts 206°
2026-04-24 16:57 30.00318 -9.52188 32915 ft 464 kts 206°
2026-04-24 16:58 29.94306 -9.54790 32920 ft 464 kts 206°
2026-04-24 16:58 29.88270 -9.57416 32924 ft 464 kts 206°
2026-04-24 16:59 29.82233 -9.60054 32930 ft 463 kts 206°
2026-04-24 17:00 29.73181 -9.64002 32939 ft 463 kts 206°
2026-04-24 17:00 29.64159 -9.67920 32940 ft 463 kts 206°
2026-04-24 17:01 29.55117 -9.71844 32947 ft 463 kts 206°
2026-04-24 17:02 29.46093 -9.75754 32956 ft 462 kts 206°
2026-04-24 17:02 29.40076 -9.78346 32957 ft 462 kts 206°
2026-04-24 17:03 29.31057 -9.82241 32957 ft 461 kts 206°
2026-04-24 17:04 29.25053 -9.84828 32955 ft 461 kts 206°
2026-04-24 17:04 29.16072 -9.88686 32962 ft 461 kts 206°
2026-04-24 17:05 29.10057 -9.91263 32964 ft 461 kts 205°
2026-04-24 17:06 29.01028 -9.95135 32968 ft 462 kts 206°
2026-04-24 17:06 28.92996 -9.98564 32979 ft 463 kts 205°
2026-04-24 17:07 28.86956 -10.01128 32976 ft 463 kts 205°
2026-04-24 17:08 28.74884 -10.06253 32983 ft 463 kts 205°
2026-04-24 17:08 28.68849 -10.08809 32981 ft 463 kts 205°
2026-04-24 17:09 28.56769 -10.13934 32972 ft 463 kts 205°
2026-04-24 17:10 28.44727 -10.19022 32974 ft 463 kts 205°
2026-04-24 17:12 28.20543 -10.29186 32963 ft 463 kts 205°
2026-04-24 18:54 16.55546 -16.08147 33870 ft 463 kts 221°
2026-04-24 18:55 16.47669 -16.14006 33874 ft 464 kts 221°
2026-04-24 18:56 16.42402 -16.17911 33878 ft 465 kts 221°
2026-04-24 18:56 16.37136 -16.21830 33890 ft 465 kts 221°
2026-04-24 18:57 16.31903 -16.25722 33896 ft 465 kts 221°
2026-04-24 18:57 16.26634 -16.29638 33901 ft 466 kts 221°
2026-04-24 18:58 16.21354 -16.33548 33901 ft 465 kts 221°
2026-04-24 18:58 16.16076 -16.37453 33907 ft 466 kts 221°
2026-04-24 18:59 16.10794 -16.41359 33910 ft 466 kts 221°
2026-04-24 18:59 16.05497 -16.45260 33914 ft 467 kts 219°
2026-04-24 19:00 15.99796 -16.48612 33920 ft 472 kts 214°
2026-04-24 19:00 15.94038 -16.51882 33919 ft 472 kts 214°
2026-04-24 19:01 15.88275 -16.55149 33920 ft 472 kts 214°
2026-04-24 19:01 15.82507 -16.58419 33919 ft 472 kts 214°
2026-04-24 19:02 15.77716 -16.61133 33585 ft 471 kts 214°
2026-04-24 19:02 15.73878 -16.63307 33083 ft 468 kts 214°
2026-04-24 19:02 15.71029 -16.64919 32657 ft 465 kts 214°
2026-04-24 19:02 15.68193 -16.66523 32033 ft 462 kts 214°
2026-04-24 19:03 15.65382 -16.68113 31406 ft 458 kts 214°
2026-04-24 19:03 15.62629 -16.69668 30787 ft 455 kts 214°
2026-04-24 19:03 15.59752 -16.71055 30147 ft 458 kts 206°
2026-04-24 19:03 15.56763 -16.72208 29395 ft 458 kts 206°
2026-04-24 19:04 15.53769 -16.73360 28649 ft 458 kts 205°
2026-04-24 19:04 15.50784 -16.74507 27895 ft 458 kts 205°
2026-04-24 19:04 15.47795 -16.75650 27143 ft 457 kts 205°
2026-04-24 19:04 15.44820 -16.76788 26388 ft 455 kts 205°
2026-04-24 19:05 15.41852 -16.77921 25629 ft 454 kts 204°
2026-04-24 19:05 15.38898 -16.79046 24890 ft 452 kts 204°
2026-04-24 19:05 15.35956 -16.80166 24140 ft 449 kts 204°
2026-04-24 19:05 15.33031 -16.81280 23391 ft 447 kts 203°
2026-04-24 19:06 15.30122 -16.82387 22638 ft 444 kts 203°
2026-04-24 19:06 15.27233 -16.83488 21888 ft 441 kts 203°
2026-04-24 19:06 15.24352 -16.84589 21133 ft 439 kts 203°
2026-04-24 19:06 15.21504 -16.85680 20374 ft 436 kts 203°
2026-04-24 19:07 15.18665 -16.86766 19632 ft 432 kts 202°
2026-04-24 19:07 15.15856 -16.87839 18878 ft 429 kts 202°
2026-04-24 19:07 15.14009 -16.88542 18381 ft 426 kts 202°
2026-04-24 19:07 15.10318 -16.89942 17517 ft 417 kts 202°
2026-04-24 19:08 15.07618 -16.90968 16968 ft 408 kts 202°
2026-04-24 19:08 15.04985 -16.91970 16479 ft 399 kts 202°
2026-04-24 19:08 15.02389 -16.92917 15976 ft 393 kts 197°
2026-04-24 19:08 14.99724 -16.93422 15475 ft 387 kts 190°
2026-04-24 19:09 14.97106 -16.93834 14979 ft 381 kts 190°
2026-04-24 19:09 14.94501 -16.94238 14476 ft 376 kts 189°
2026-04-24 19:09 14.91925 -16.94631 13976 ft 371 kts 189°
2026-04-24 19:09 14.89379 -16.95019 13476 ft 367 kts 189°
2026-04-24 19:10 14.86871 -16.95405 12975 ft 362 kts 189°
2026-04-24 19:10 14.84388 -16.95791 12477 ft 358 kts 189°
2026-04-24 19:10 14.81939 -16.96172 11973 ft 354 kts 189°
2026-04-24 19:10 14.79517 -16.96546 11475 ft 350 kts 188°
2026-04-24 19:11 14.77115 -16.96912 10971 ft 347 kts 188°
2026-04-24 19:11 14.74717 -16.97031 10470 ft 343 kts 179°
2026-04-24 19:11 14.72342 -16.97002 9965 ft 340 kts 180°
2026-04-24 19:11 14.69988 -16.96979 9461 ft 337 kts 180°
2026-04-24 19:12 14.67680 -16.96960 8917 ft 336 kts 180°
2026-04-24 19:12 14.65347 -16.96942 8365 ft 335 kts 180°
2026-04-24 19:12 14.63018 -16.96922 7816 ft 335 kts 180°
2026-04-24 19:12 14.60689 -16.96902 7262 ft 334 kts 180°
2026-04-24 19:13 14.59121 -16.96888 6890 ft 333 kts 180°
2026-04-24 19:13 14.56066 -16.96862 6158 ft 331 kts 180°
2026-04-24 19:13 14.53767 -16.96844 5628 ft 330 kts 180°
2026-04-24 19:13 14.51489 -16.96825 5265 ft 322 kts 180°
2026-04-24 19:14 14.49281 -16.96802 4986 ft 314 kts 180°
2026-04-24 19:14 14.47145 -16.96788 4727 ft 297 kts 182°
2026-04-24 19:14 14.45188 -16.97227 4485 ft 283 kts 209°
2026-04-24 19:14 14.43693 -16.98440 4228 ft 268 kts 235°
2026-04-24 19:15 14.42867 -17.00088 3987 ft 253 kts 259°
2026-04-24 19:15 14.42730 -17.01821 3901 ft 232 kts 281°
2026-04-24 19:15 14.43160 -17.03364 3910 ft 221 kts 300°
2026-04-24 19:15 14.44002 -17.04596 3899 ft 200 kts 317°
2026-04-24 19:16 14.46179 -17.06042 3924 ft 182 kts 333°
2026-04-24 19:16 14.47290 -17.06668 3879 ft 182 kts 335°
2026-04-24 19:16 14.48496 -17.07022 3607 ft 179 kts 354°
2026-04-24 19:17 14.49720 -17.07094 3360 ft 174 kts 357°
2026-04-24 19:17 14.50912 -17.07122 3124 ft 169 kts 358°
2026-04-24 19:17 14.52080 -17.07137 2896 ft 167 kts 359°
2026-04-24 19:17 14.53234 -17.07151 2679 ft 165 kts 358°
2026-04-24 19:18 14.54377 -17.07162 2461 ft 164 kts 359°
2026-04-24 19:18 14.55490 -17.07173 2259 ft 152 kts 359°
2026-04-24 19:18 14.56493 -17.07183 2054 ft 143 kts 359°
2026-04-24 19:18 14.57487 -17.07192 1865 ft 139 kts 359°
2026-04-24 19:19 14.58437 -17.07201 1680 ft 137 kts 359°
2026-04-24 19:19 14.59395 -17.07210 1499 ft 138 kts 359°
2026-04-24 19:19 14.60352 -17.07219 1316 ft 137 kts 359°
2026-04-24 19:19 14.61306 -17.07228 1138 ft 137 kts 359°
2026-04-24 19:20 14.62259 -17.07237 955 ft 138 kts 358°
2026-04-24 19:20 14.63192 -17.07260 784 ft 137 kts 358°
2026-04-24 19:20 14.64172 -17.07261 579 ft 138 kts 358°
2026-04-24 19:20 14.65132 -17.07267 409 ft 138 kts 359°
2026-04-24 19:21 14.66089 -17.07273 305 ft 133 kts 359°
2026-04-24 19:21 14.66780 -17.07279 299 ft 57 kts 360°
2026-04-24 19:21 14.67009 -17.07280 296 ft 13 kts
2026-04-24 19:21 14.67075 -17.07221 298 ft 13 kts 72°
2026-04-24 19:22 14.67077 -17.07161 295 ft 13 kts 90°
2026-04-24 19:22 14.67077 -17.07039 294 ft 12 kts 90°
2026-04-24 19:22 14.67077 -17.06978 296 ft 7 kts 90°
2026-04-24 19:22 14.67081 -17.06934 298 ft 6 kts 79°
2026-04-24 19:23 14.67089 -17.06897 294 ft 5 kts 79°
2026-04-24 19:23 14.67093 -17.06866 294 ft 3 kts 82°
2026-04-24 19:23 14.67094 -17.06858 294 ft 0 kts 82°